| time (UTC) | temp C | wind direction | speed KPH | gust KPH | rain 1hr cm | rain 24hr cm | rain mn cm | humidity % | barometer mb |
| 20260507181507 | 12 | 261 | 0.0 | 0.0 | 0.00 | 0.15 | 0.00 | 49 | 1008.3 |
| 20260507180011 | 12 | 26 | 0.0 | 0.0 | 0.00 | 0.15 | 0.00 | 50 | 1008.5 |
| 20260507174504 | 13 | 355 | 0.0 | 0.0 | 0.00 | 0.15 | 0.00 | 47 | 1008.4 |
| 20260507173001 | 12 | 71 | 0.0 | 0.0 | 0.00 | 0.15 | 0.00 | 50 | 1008.6 |
| 20260507171601 | 12 | 245 | 0.0 | 0.0 | 0.00 | 0.15 | 0.00 | 49 | 1008.9 |
| 20260507170058 | 12 | 262 | 0.0 | 0.0 | 0.00 | 0.15 | 0.00 | 50 | 1008.9 |
| 20260507164558 | 12 | 265 | 0.0 | 0.0 | 0.00 | 0.15 | 0.00 | 48 | 1009.3 |
| 20260507163054 | 12 | 252 | 0.0 | 0.0 | 0.00 | 0.15 | 0.00 | 50 | 1009.2 |
| 20260507161601 | 12 | 282 | 0.0 | 0.0 | 0.00 | 0.15 | 0.00 | 48 | 1009.4 |
| 20260507160100 | 12 | 57 | 0.0 | 0.0 | 0.00 | 0.15 | 0.00 | 52 | 1009.9 |
| 20260507154550 | 12 | 234 | 0.0 | 0.0 | 0.00 | 0.25 | 0.00 | 48 | 1010.0 |
| 20260507153054 | 11 | 230 | 0.0 | 0.0 | 0.00 | 0.25 | 0.00 | 57 | 1010.1 |
| 20260507151548 | 11 | 275 | 0.0 | 0.0 | 0.00 | 0.25 | 0.00 | 54 | 1010.4 |
| 20260507150045 | 11 | 10 | 0.0 | 0.0 | 0.00 | 0.25 | 0.00 | 56 | 1010.6 |
| 20260507144543 | 11 | 77 | 0.0 | 0.0 | 0.00 | 0.33 | 0.00 | 57 | 1010.7 |
| 20260507143055 | 11 | 21 | 0.0 | 0.0 | 0.00 | 0.33 | 0.00 | 59 | 1010.6 |
| 20260507141549 | 10 | 325 | 0.0 | 0.0 | 0.00 | 0.33 | 0.00 | 59 | 1010.6 |
| 20260507140036 | 10 | 91 | 0.0 | 0.0 | 0.00 | 0.33 | 0.00 | 58 | 1010.7 |
| 20260507134535 | 10 | 279 | 0.0 | 0.0 | 0.00 | 0.43 | 0.00 | 60 | 1010.8 |
| 20260507133054 | 9 | 134 | 0.0 | 0.0 | 0.00 | 0.43 | 0.00 | 68 | 1011.2 |
| 20260507131529 | 8 | 329 | 0.0 | 0.0 | 0.00 | 0.43 | 0.00 | 68 | 1011.0 |
| 20260507130025 | 8 | 309 | 0.0 | 0.0 | 0.00 | 0.43 | 0.00 | 70 | 1011.1 |
| 20260507124527 | 8 | 355 | 0.0 | 0.0 | 0.00 | 0.58 | 0.00 | 73 | 1011.1 |
| 20260507123031 | 7 | 223 | 0.0 | 0.0 | 0.00 | 0.58 | 0.00 | 82 | 1011.1 |
| 20260507121519 | 6 | 5 | 0.0 | 0.0 | 0.00 | 0.58 | 0.00 | 82 | 1011.0 |
| 20260507120018 | 6 | 329 | 0.0 | 0.0 | 0.00 | 0.58 | 0.00 | 87 | 1011.0 |
| 20260507114518 | 5 | 162 | 0.0 | 0.0 | 0.00 | 0.71 | 0.00 | 89 | 1011.1 |
| 20260507113017 | 4 | 163 | 0.0 | 0.0 | 0.00 | 0.71 | 0.00 | 94 | 1011.0 |
| 20260507111516 | 3 | 163 | 0.0 | 0.0 | 0.00 | 0.71 | 0.00 | 94 | 1010.9 |
| 20260507110014 | 3 | 286 | 0.0 | 0.0 | 0.00 | 0.71 | 0.00 | 94 | 1010.6 |
| 20260507104513 | 2 | 286 | 0.0 | 0.0 | 0.00 | 0.76 | 0.00 | 93 | 1010.6 |
| 20260507103012 | 3 | 286 | 0.0 | 0.0 | 0.00 | 0.76 | 0.00 | 92 | 1010.6 |
| 20260507101509 | 3 | 286 | 0.0 | 0.0 | 0.00 | 0.76 | 0.00 | 91 | 1010.2 |
| 20260507100006 | 3 | 286 | 0.0 | 0.0 | 0.00 | 0.76 | 0.00 | 90 | 1010.4 |
| 20260507094504 | 3 | 286 | 0.0 | 0.0 | 0.00 | 0.76 | 0.00 | 89 | 1010.3 |
| 20260507093001 | 5 | 286 | 0.0 | 0.0 | 0.00 | 0.76 | 0.00 | 88 | 1010.2 |
| 20260507091558 | 5 | 286 | 0.0 | 0.0 | 0.00 | 0.76 | 0.00 | 86 | 1009.9 |
| 20260507090057 | 5 | 287 | 0.0 | 0.0 | 0.00 | 0.76 | 0.00 | 87 | 1009.9 |
| 20260507084558 | 6 | 287 | 0.0 | 0.0 | 0.00 | 0.76 | 0.00 | 84 | 1010.1 |
| 20260507083052 | 6 | 252 | 0.0 | 0.0 | 0.00 | 0.76 | 0.00 | 84 | 1009.9 |
| 20260507081551 | 6 | 329 | 0.0 | 0.0 | 0.00 | 0.76 | 0.00 | 85 | 1010.0 |
| 20260507080049 | 6 | 88 | 0.0 | 0.0 | 0.00 | 0.76 | 0.00 | 90 | 1010.1 |
| 20260507074552 | 6 | 89 | 0.0 | 0.0 | 0.00 | 0.76 | 0.00 | 91 | 1009.9 |
| 20260507073058 | 6 | 89 | 0.0 | 0.0 | 0.00 | 0.76 | 0.00 | 92 | 1010.0 |
| 20260507071548 | 6 | 89 | 0.0 | 0.0 | 0.00 | 0.76 | 0.00 | 90 | 1010.0 |
| 20260507070056 | 6 | 87 | 0.0 | 0.0 | 0.00 | 0.76 | 0.00 | 88 | 1010.0 |
| 20260507064552 | 7 | 73 | 0.0 | 0.0 | 0.00 | 0.76 | 0.00 | 90 | 1010.0 |
| 20260507063046 | 7 | 295 | 0.0 | 0.0 | 0.00 | 0.76 | 0.00 | 88 | 1009.9 |
| 20260507061542 | 7 | 306 | 0.0 | 0.0 | 0.00 | 0.76 | 0.00 | 91 | 1009.7 |
| 20260507060048 | 7 | 146 | 0.0 | 0.0 | 0.00 | 0.76 | 0.00 | 96 | 1009.6 |
| 20260507054539 | 7 | 155 | 0.0 | 0.0 | 0.00 | 0.76 | 0.00 | 97 | 1009.4 |
| 20260507053037 | 6 | 161 | 0.0 | 0.0 | 0.00 | 0.76 | 0.00 | 97 | 1009.6 |
| 20260507051536 | 6 | 161 | 0.0 | 0.0 | 0.00 | 0.76 | 0.00 | 97 | 1009.3 |
| 20260507050036 | 6 | 161 | 0.0 | 0.0 | 0.00 | 0.76 | 0.00 | 96 | 1009.1 |
| 20260507044537 | 6 | 161 | 0.0 | 0.0 | 0.00 | 0.76 | 0.00 | 96 | 1009.3 |
| 20260507043031 | 6 | 247 | 0.0 | 0.0 | 0.00 | 0.76 | 0.00 | 96 | 1009.4 |
| 20260507041528 | 6 | 247 | 0.0 | 0.0 | 0.00 | 0.76 | 0.00 | 96 | 1009.4 |
| 20260507040024 | 6 | 247 | 0.0 | 0.0 | 0.00 | 0.76 | 0.00 | 96 | 1009.7 |
| 20260507034524 | 6 | 247 | 0.0 | 0.0 | 0.00 | 0.76 | 0.76 | 96 | 1009.5 |
| 20260507033030 | 6 | 247 | 0.0 | 0.0 | 0.00 | 0.76 | 0.76 | 95 | 1009.3 |
| 20260507031527 | 6 | 247 | 0.0 | 0.0 | 0.00 | 0.76 | 0.76 | 95 | 1009.0 |
| 20260507030019 | 7 | 247 | 0.0 | 0.0 | 0.00 | 0.76 | 0.76 | 94 | 1009.1 |
| 20260507024521 | 7 | 250 | 0.0 | 0.0 | 0.00 | 0.76 | 0.76 | 94 | 1009.4 |
| 20260507023014 | 7 | 250 | 0.0 | 0.0 | 0.00 | 0.76 | 0.76 | 93 | 1009.5 |
| 20260507021513 | 8 | 250 | 0.0 | 0.0 | 0.00 | 0.76 | 0.76 | 93 | 1009.6 |
| 20260507020012 | 8 | 250 | 0.0 | 0.0 | 0.00 | 0.76 | 0.76 | 93 | 1009.5 |
| 20260507014511 | 8 | 250 | 0.0 | 0.0 | 0.00 | 0.76 | 0.76 | 93 | 1009.8 |
| 20260507013010 | 8 | 249 | 0.0 | 0.0 | 0.00 | 0.76 | 0.76 | 93 | 1009.9 |
| 20260507011523 | 8 | 261 | 0.0 | 0.0 | 0.00 | 0.76 | 0.76 | 94 | 1009.8 |
| 20260507010006 | 8 | 263 | 0.0 | 0.0 | 0.00 | 0.76 | 0.76 | 94 | 1009.5 |
| 20260507004504 | 8 | 263 | 0.0 | 0.0 | 0.00 | 0.76 | 0.76 | 93 | 1009.4 |
| 20260507003003 | 8 | 263 | 0.0 | 0.0 | 0.00 | 0.76 | 0.76 | 93 | 1009.0 |
| 20260507001500 | 8 | 263 | 0.0 | 0.0 | 0.00 | 0.76 | 0.76 | 92 | 1008.7 |
| 20260507000059 | 8 | 273 | 0.0 | 0.0 | 0.00 | 0.76 | 0.76 | 92 | 1008.5 |
| 20260506234606 | 8 | 257 | 0.0 | 0.0 | 0.00 | 0.76 | 0.76 | 92 | 1008.5 |
| 20260506233059 | 8 | 342 | 0.0 | 0.0 | 0.00 | 0.76 | 0.76 | 92 | 1008.3 |
| 20260506231557 | 8 | 222 | 0.0 | 0.0 | 0.00 | 0.76 | 0.76 | 91 | 1008.3 |
| 20260506224600 | 8 | 122 | 0.0 | 0.0 | 0.00 | 0.76 | 0.76 | 91 | 1008.2 |
| 20260506223054 | 8 | 247 | 0.0 | 0.0 | 0.00 | 0.76 | 0.76 | 92 | 1008.0 |
| 20260506221551 | 8 | 214 | 0.0 | 0.0 | 0.00 | 0.76 | 0.76 | 94 | 1007.8 |
| 20260506220053 | 8 | 17 | 0.0 | 0.0 | 0.03 | 0.76 | 0.76 | 93 | 1007.4 |
| 20260506214549 | 9 | 113 | 0.0 | 0.0 | 0.03 | 0.76 | 0.76 | 94 | 1007.3 |
| 20260506213046 | 9 | 299 | 0.0 | 0.0 | 0.05 | 0.76 | 0.76 | 93 | 1007.1 |
| 20260506211543 | 9 | 253 | 0.0 | 0.0 | 0.05 | 0.76 | 0.76 | 94 | 1006.8 |
| 20260506210041 | 10 | 277 | 0.0 | 0.0 | 0.08 | 0.71 | 0.71 | 94 | 1006.3 |
| 20260506204542 | 10 | 249 | 0.0 | 0.0 | 0.10 | 0.71 | 0.71 | 93 | 1006.2 |
| 20260506203040 | 10 | 119 | 0.0 | 0.0 | 0.10 | 0.71 | 0.71 | 93 | 1005.9 |
| 20260506201538 | 10 | 168 | 0.0 | 0.0 | 0.10 | 0.71 | 0.71 | 92 | 1005.6 |
| 20260506200038 | 10 | 301 | 0.0 | 0.0 | 0.05 | 0.66 | 0.66 | 92 | 1005.3 |
| 20260506194528 | 11 | 246 | 0.0 | 0.0 | 0.03 | 0.64 | 0.64 | 90 | 1004.7 |
| 20260506193026 | 15 | 286 | 0.0 | 0.0 | 0.00 | 0.61 | 0.61 | 83 | 1004.0 |
| 20260506191527 | 16 | 341 | 0.0 | 0.0 | 0.00 | 0.61 | 0.61 | 89 | 1003.6 |
| 20260506190024 | 16 | 94 | 0.0 | 0.0 | 0.00 | 0.61 | 0.61 | 90 | 1003.7 |
| 20260506184526 | 16 | 140 | 0.0 | 0.0 | 0.00 | 0.61 | 0.61 | 90 | 1003.7 |
| 20260506183023 | 16 | 142 | 0.0 | 0.0 | 0.00 | 0.61 | 0.61 | 89 | 1003.7 |